Wind_Speed
13 14 16 17 19 22 24 26 29 31 34 36 39 41 43 45 47 49 50 52 54 56 58 59 60 60 61 61 61 60 60 58 57 56 55 53 52 50 49 49 48 48 48 49
15 16 17 19 22 24 26 28 30 33 35 37 40 42 45 47 49 50 51 52 54 56 58 59 60 60 60 60 59 58 57 56 54 53 52 50 48 46 44 43 43 43 41 42
17 18 19 22 24 26 27 30 33 35 38 39 40 43 46 48 49 50 51 53 54 56 57 58 58 58 58 56 55 55 54 53 52 50 48 46 44 43 41 40 39 39 37 37
19 21 22 24 26 28 30 32 34 37 40 42 43 44 47 48 49 50 51 52 53 56 57 57 57 57 57 56 54 52 51 50 48 46 44 42 41 39 38 38 38 38 37 37
20 22 23 25 28 31 33 35 37 40 42 43 44 44 45 46 48 49 50 53 55 56 57 57 57 56 54 52 50 48 47 45 43 42 41 39 38 37 36 36 36 36 36 36
22 23 25 27 30 33 36 37 40 42 43 44 45 46 46 47 49 49 52 54 55 55 55 55 56 55 52 49 47 44 43 40 38 36 35 34 34 34 34 34 34 34 34 34
22 24 25 28 31 34 37 40 42 43 44 46 47 48 49 49 49 50 52 53 53 54 55 55 55 53 50 47 45 42 39 35 33 31 30 30 30 29 29 29 30 31 31 32
24 25 27 30 32 35 38 40 43 44 45 46 47 48 49 48 48 49 50 51 52 54 54 54 53 51 48 44 42 39 35 31 28 26 24 24 23 23 23 25 26 27 27 28
24 26 28 30 33 36 39 41 43 45 45 46 47 48 48 47 47 48 50 51 52 53 53 52 51 49 46 42 39 36 32 29 26 23 21 18 17 17 18 19 20 21 23 23
24 25 28 31 33 37 39 42 44 46 46 46 48 48 47 47 46 47 49 49 50 51 51 51 49 47 45 42 39 36 32 28 24 21 18 15 13 12 13 14 16 17 19 20
24 26 28 31 34 37 40 42 45 46 47 46 47 47 47 46 45 46 48 48 49 50 50 49 49 47 44 42 39 35 32 27 23 19 15 12 10 8 7 8 11 13 15 16
25 27 30 32 35 38 40 43 45 46 46 46 46 47 47 46 44 45 47 47 48 49 48 48 47 47 45 42 39 36 31 27 22 18 15 12 7 5 4 5 8 11 12 13
25 28 30 33 35 38 40 43 45 46 46 46 46 47 46 45 43 44 45 46 46 47 47 47 47 47 45 43 40 36 32 27 23 19 15 11 7 3 0 3 6 8 10 10
26 28 30 33 36 38 41 43 45 46 47 46 46 46 45 45 43 43 44 44 45 45 45 46 46 46 45 43 41 37 33 28 24 21 17 13 9 7 5 5 5 6 7 8
26 28 31 33 36 38 41 42 44 45 46 45 45 45 44 44 42 41 42 43 43 43 43 44 44 45 45 43 41 38 34 30 26 23 20 16 13 10 9 7 6 6 7 7
26 29 31 34 36 38 41 42 43 45 45 45 45 44 43 43 42 41 41 41 41 41 42 43 43 44 43 42 40 37 35 32 29 26 22 19 16 14 12 11 10 10 9 8
27 29 31 34 36 38 41 42 43 44 45 45 45 44 43 42 41 40 39 39 39 40 40 41 42 42 41 41 40 38 35 33 30 28 24 21 19 18 16 15 13 12 11 10
28 30 32 34 36 38 40 42 43 44 45 45 45 44 43 41 40 39 37 37 37 37 38 39 40 40 39 38 38 37 35 33 30 28 27 25 23 21 19 17 16 16 15 14
29 31 32 34 36 38 40 42 43 44 44 45 45 44 43 41 40 39 37 35 34 34 35 36 37 37 36 36 35 35 35 33 31 29 27 26 24 22 21 20 19 17 16 15
29 31 33 34 36 38 39 41 43 44 44 44 44 43 42 40 39 38 36 34 33 33 33 34 34 34 33 33 33 33 34 33 31 30 28 26 24 23 21 20 19 18 18 18
31 32 33 34 36 38 39 41 42 43 44 44 43 42 41 40 38 36 34 33 32 31 31 31 30 30 30 30 31 31 31 31 31 30 28 27 26 24 23 23 22 21 21 21
32 33 33 35 36 38 39 41 42 43 43 43 43 41 40 39 37 35 33 32 31 29 28 28 27 28 27 28 28 28 28 29 29 29 28 27 26 25 24 24 24 23 23 22
33 34 34 35 36 38 39 40 42 42 42 42 41 40 39 38 36 34 32 31 29 28 26 25 25 24 24 25 25 25 25 26 26 26 26 26 25 24 24 23 23 23 23 22
34 35 35 36 37 38 39 40 41 42 42 41 40 39 38 37 35 33 31 29 27 27 26 23 22 21 21 22 22 22 22 22 23 23 23 23 23 23 23 23 23 22 23 23
36 36 36 37 38 39 39 40 41 41 41 41 40 38 37 35 34 32 30 27 25 25 24 23 20 18 18 18 18 18 19 19 19 19 19 19 20 20 20 20 21 21 22 22
38 38 38 38 39 40 40 40 40 40 40 40 39 38 36 34 33 31 29 26 24 22 22 21 19 17 15 15 15 15 15 15 15 15 15 15 15 16 16 17 17 18 18 18
40 40 40 39 40 40 41 40 40 40 39 39 38 36 35 33 31 30 28 26 23 21 20 19 18 16 14 13 12 12 12 12 12 12 11 11 12 12 12 13 14 15 15 15
Wind_Direction
334 332 330 328 327 327 328 326 323 323 322 322 322 322 322 321 321 320 319 318 317 316 315 313 311 309 307 304 301 299 297 295 292 289 287 285 282 279 275 272 269 265 262 259
336 336 336 332 331 332 331 328 326 326 325 326 326 326 325 324 323 323 321 321 320 318 317 315 313 311 309 306 303 300 298 296 293 290 287 284 281 278 274 269 265 262 260 257
338 338 336 335 335 334 333 331 331 331 331 330 330 330 328 327 327 326 326 324 323 322 321 319 317 315 312 309 306 303 300 297 294 290 286 282 279 275 271 267 262 258 255 253
340 340 340 338 337 336 336 336 335 334 334 335 334 334 331 330 330 329 328 327 327 327 325 323 321 318 315 312 308 305 303 300 295 290 285 282 278 273 268 263 258 255 253 252
341 341 339 338 337 338 340 340 338 338 338 337 335 335 333 331 331 331 332 331 331 330 328 327 325 322 320 317 314 310 306 302 297 291 287 281 277 272 267 260 257 254 251 250
340 339 338 339 340 341 341 341 342 341 340 338 337 337 337 336 335 335 335 335 334 333 332 331 329 327 324 322 319 315 310 306 301 295 288 282 277 271 265 258 254 251 250 249
338 339 339 341 342 342 342 343 343 342 341 340 340 339 339 339 339 338 338 338 337 337 336 336 335 333 330 327 324 321 317 312 306 300 291 283 277 271 263 256 252 249 248 247
339 340 342 343 343 344 344 343 343 343 343 342 341 341 341 340 340 340 340 340 340 340 340 340 340 339 337 334 332 329 324 320 315 308 301 290 279 270 263 255 250 247 244 241
341 341 342 343 343 344 344 345 345 345 344 343 343 343 342 342 342 342 343 343 343 344 344 345 345 345 344 343 341 338 334 329 323 318 311 300 286 273 263 255 246 241 237 235
340 342 342 343 344 345 345 346 346 346 346 345 345 345 345 344 344 344 345 346 346 348 349 350 350 350 350 349 347 345 342 337 333 328 321 310 297 281 266 251 239 234 230 230
340 342 343 343 344 346 346 347 347 348 347 346 346 347 347 346 346 347 348 349 350 351 353 354 355 355 355 354 354 353 351 348 344 340 335 325 309 291 266 243 228 222 221 224
340 342 343 344 345 346 347 348 349 349 349 348 348 349 349 349 349 349 351 353 354 355 357 359 0 1 0 360 360 359 359 358 357 354 350 344 330 301 258 227 215 212 212 216
339 340 341 343 344 346 348 349 350 350 350 350 350 350 351 351 351 351 353 355 357 359 1 2 4 5 6 6 5 5 7 9 10 8 7 7 10 13 130 186 189 193 200 209
336 338 340 342 344 347 349 350 351 351 352 351 351 352 352 353 353 354 355 357 359 1 3 5 6 8 9 10 11 12 13 15 17 20 22 28 37 55 88 129 152 169 185 195
333 336 339 341 344 347 349 350 351 352 352 352 352 352 353 354 354 355 357 359 1 3 5 7 9 10 11 13 15 17 19 22 25 28 33 42 52 64 79 97 115 132 145 155
332 334 338 341 344 346 349 350 351 352 353 353 353 353 354 354 355 356 357 359 2 4 6 8 10 12 14 16 19 22 24 28 31 35 41 49 57 66 76 86 97 106 115 123
330 333 337 340 343 346 348 350 351 351 352 354 354 354 355 355 356 356 357 359 1 4 7 9 11 14 17 20 23 25 28 31 36 41 47 54 61 68 75 81 89 97 103 110
327 331 334 338 341 344 346 349 350 351 352 353 354 354 355 355 356 357 357 359 1 4 6 9 11 15 18 22 25 28 31 36 41 46 51 56 62 68 75 81 88 94 97 99
324 328 332 335 339 342 345 347 349 350 351 352 353 354 355 355 356 357 358 359 2 4 6 9 12 16 20 24 27 30 33 37 42 47 52 57 63 68 73 79 84 88 90 94
320 325 329 333 336 339 342 345 347 349 350 351 352 353 354 355 356 356 357 359 1 3 6 10 14 17 21 25 28 31 34 37 41 46 52 58 63 66 71 77 81 83 87 94
317 321 325 329 332 335 339 342 345 347 348 349 350 351 353 353 355 357 358 358 360 2 5 9 13 18 21 25 28 32 36 39 43 47 52 57 61 65 71 76 80 83 87 91
314 318 321 324 328 331 335 339 342 344 346 347 348 349 351 352 353 355 356 358 359 1 4 8 12 16 21 24 27 32 37 41 44 48 51 56 60 65 70 74 78 83 87 89
310 313 316 320 324 328 331 334 338 340 342 344 346 347 348 350 351 352 354 356 358 0 2 5 9 15 21 24 27 31 37 41 45 49 52 55 60 64 68 73 78 83 86 89
306 309 312 316 319 323 327 330 333 336 339 341 343 345 345 347 348 350 352 353 356 358 0 3 7 12 18 22 26 30 35 40 44 48 52 55 58 63 68 73 78 83 87 90
303 306 309 311 315 319 323 326 328 332 334 337 339 341 342 344 345 347 349 350 352 355 357 360 2 6 13 18 22 27 31 36 42 48 52 55 59 62 67 73 80 85 88 90
298 301 305 308 311 314 318 321 324 327 330 333 335 337 338 340 341 343 345 346 347 349 352 355 357 359 2 8 14 20 25 29 35 41 48 54 59 63 68 73 80 86 90 92
294 297 299 303 307 310 313 316 319 323 325 328 331 333 334 336 337 339 341 343 343 344 347 350 352 354 356 358 2 9 16 23 29 35 42 49 56 62 69 76 81 84 88 90
Height
5832 5830 5827 5824 5820 5817 5813 5808 5804 5798 5793 5786 5779 5772 5764 5756 5747 5739 5731 5722 5713 5703 5694 5684 5675 5666 5656 5648 5640 5632 5626 5620 5616 5612 5608 5606 5604 5603 5602 5602 5603 5605 5607 5610
5830 5828 5824 5821 5817 5813 5809 5804 5799 5793 5787 5780 5772 5763 5755 5746 5737 5729 5719 5710 5700 5690 5680 5669 5659 5648 5639 5629 5620 5612 5606 5600 5596 5592 5588 5586 5584 5583 5583 5584 5585 5587 5590 5593
5828 5825 5822 5819 5814 5810 5805 5800 5793 5786 5780 5772 5765 5756 5746 5736 5727 5718 5708 5698 5688 5677 5666 5654 5643 5631 5621 5611 5602 5594 5587 5581 5576 5572 5569 5567 5566 5566 5566 5567 5569 5572 5576 5579
5826 5823 5819 5817 5810 5806 5801 5794 5788 5780 5773 5764 5756 5748 5737 5727 5718 5708 5698 5688 5677 5665 5653 5641 5628 5616 5605 5594 5585 5576 5569 5563 5558 5554 5552 5550 5549 5549 5550 5552 5555 5558 5562 5566
5824 5820 5817 5812 5806 5800 5795 5789 5782 5774 5766 5757 5749 5742 5732 5721 5711 5699 5688 5677 5665 5653 5640 5627 5615 5602 5590 5579 5569 5561 5553 5547 5541 5538 5535 5534 5534 5534 5535 5538 5541 5545 5549 5553
5821 5817 5813 5810 5803 5796 5791 5784 5776 5767 5759 5751 5741 5733 5724 5713 5701 5690 5679 5667 5655 5642 5629 5616 5603 5589 5577 5566 5556 5547 5540 5533 5528 5524 5521 5520 5520 5521 5522 5525 5528 5533 5537 5542
5819 5815 5810 5806 5799 5793 5787 5780 5771 5762 5753 5744 5734 5724 5714 5703 5693 5682 5671 5659 5647 5634 5621 5607 5593 5579 5567 5556 5546 5537 5528 5522 5516 5512 5510 5508 5508 5509 5511 5514 5518 5522 5527 5531
5816 5811 5808 5801 5795 5789 5783 5774 5766 5757 5747 5738 5728 5718 5707 5697 5686 5676 5665 5653 5640 5627 5614 5599 5585 5572 5559 5548 5537 5528 5520 5513 5508 5504 5501 5499 5499 5500 5502 5505 5508 5512 5517 5522
5813 5810 5803 5797 5792 5785 5778 5769 5761 5752 5742 5732 5722 5712 5702 5692 5681 5670 5659 5647 5634 5621 5608 5594 5580 5567 5554 5543 5532 5523 5514 5508 5502 5498 5495 5493 5492 5493 5495 5498 5501 5505 5509 5514
5810 5806 5801 5795 5788 5781 5773 5765 5756 5747 5737 5727 5717 5707 5697 5687 5677 5666 5655 5642 5630 5617 5604 5591 5577 5564 5551 5540 5529 5520 5511 5504 5498 5494 5491 5489 5488 5489 5490 5493 5496 5500 5504 5509
5807 5803 5798 5792 5785 5778 5770 5761 5752 5743 5733 5723 5714 5704 5693 5683 5672 5662 5651 5639 5627 5614 5601 5588 5575 5562 5550 5539 5528 5518 5510 5502 5497 5492 5489 5487 5486 5486 5487 5490 5493 5497 5501 5505
5804 5799 5794 5789 5782 5775 5767 5758 5749 5740 5730 5720 5710 5700 5690 5679 5669 5659 5648 5637 5625 5613 5600 5588 5575 5563 5551 5539 5529 5519 5510 5503 5497 5492 5489 5486 5485 5485 5487 5489 5492 5495 5499 5503
5801 5796 5791 5785 5779 5771 5763 5754 5745 5736 5726 5717 5707 5697 5687 5677 5667 5657 5646 5636 5624 5613 5601 5589 5577 5565 5553 5541 5531 5521 5512 5505 5499 5494 5490 5487 5486 5486 5488 5490 5492 5495 5499 5502
5798 5793 5788 5782 5775 5768 5760 5751 5742 5732 5723 5713 5704 5695 5685 5675 5665 5656 5646 5635 5624 5613 5602 5591 5579 5568 5556 5545 5534 5525 5516 5509 5502 5497 5493 5491 5489 5489 5490 5492 5494 5497 5500 5502
5795 5790 5785 5779 5772 5764 5757 5748 5739 5730 5721 5712 5702 5693 5684 5674 5665 5655 5646 5636 5625 5615 5605 5594 5583 5572 5561 5550 5540 5530 5522 5514 5508 5503 5499 5496 5495 5494 5495 5496 5497 5499 5502 5504
5791 5787 5781 5775 5768 5761 5754 5746 5737 5728 5719 5710 5701 5692 5682 5673 5664 5655 5646 5636 5627 5618 5608 5597 5587 5577 5566 5556 5546 5537 5529 5522 5515 5510 5505 5503 5501 5500 5500 5501 5502 5504 5505 5507
5788 5783 5777 5772 5765 5758 5751 5743 5734 5726 5717 5708 5699 5690 5681 5672 5664 5655 5646 5637 5629 5620 5610 5601 5592 5582 5572 5563 5554 5545 5537 5530 5524 5518 5514 5511 5509 5508 5507 5507 5508 5509 5510 5511
5783 5779 5773 5768 5761 5755 5748 5740 5732 5723 5715 5706 5697 5689 5680 5672 5664 5656 5647 5639 5631 5623 5614 5605 5596 5587 5578 5570 5562 5554 5546 5539 5533 5528 5524 5520 5517 5516 5515 5514 5514 5515 5516 5517
5779 5774 5769 5764 5758 5751 5744 5737 5729 5721 5713 5704 5696 5688 5680 5671 5663 5656 5648 5640 5633 5626 5618 5609 5601 5593 5585 5577 5570 5563 5556 5549 5543 5538 5533 5530 5527 5525 5523 5523 5522 5522 5522 5523
5774 5769 5764 5759 5753 5747 5741 5734 5726 5719 5711 5703 5695 5687 5679 5671 5664 5656 5648 5641 5635 5628 5620 5613 5606 5599 5592 5585 5578 5571 5565 5559 5553 5547 5543 5539 5536 5534 5532 5531 5530 5530 5530 5530
5768 5764 5759 5754 5749 5743 5737 5730 5723 5716 5708 5701 5693 5686 5678 5671 5664 5657 5650 5643 5636 5630 5623 5617 5611 5604 5598 5591 5585 5579 5574 5568 5563 5558 5553 5549 5546 5544 5542 5540 5539 5539 5538 5538
5761 5758 5753 5749 5744 5738 5732 5726 5720 5713 5706 5699 5691 5684 5677 5670 5663 5657 5650 5644 5638 5632 5626 5620 5615 5609 5603 5597 5592 5587 5582 5577 5572 5567 5563 5560 5557 5554 5552 5550 5549 5548 5548 5548
5754 5751 5747 5743 5738 5733 5728 5722 5716 5710 5703 5696 5690 5683 5676 5670 5664 5657 5651 5645 5639 5634 5628 5623 5618 5613 5608 5603 5599 5594 5589 5585 5581 5577 5573 5570 5567 5564 5561 5560 5558 5558 5557 5557
5747 5744 5740 5736 5732 5727 5722 5717 5711 5706 5700 5693 5687 5681 5674 5668 5662 5656 5651 5645 5640 5635 5630 5625 5620 5616 5612 5608 5604 5600 5596 5592 5589 5585 5582 5579 5576 5574 5571 5569 5568 5567 5567 5567
5739 5736 5733 5729 5725 5721 5716 5712 5706 5701 5695 5690 5684 5678 5672 5667 5661 5655 5650 5645 5640 5635 5631 5626 5622 5619 5615 5612 5608 5605 5602 5598 5595 5592 5589 5587 5585 5582 5580 5579 5577 5577 5576 5576
5730 5728 5725 5721 5718 5714 5710 5705 5701 5696 5691 5685 5680 5674 5669 5664 5659 5654 5649 5644 5639 5635 5631 5627 5623 5620 5617 5614 5611 5608 5606 5603 5600 5598 5595 5593 5591 5589 5588 5587 5585 5584 5584 5584
5720 5718 5716 5713 5709 5706 5702 5698 5694 5690 5685 5681 5676 5670 5666 5661 5656 5651 5647 5642 5638 5634 5631 5627 5624 5620 5617 5615 5612 5610 5608 5606 5603 5601 5600 5598 5596 5595 5594 5593 5592 5591 5591 5591